User: anonymous   Login
Location: NC_16_and_73
(35.4490°N, 81.0150°W)
Time: 16:01:34
(UTC-04:00)
Language:

Iridium 63 - Orbit

View from above orbital plane
View from above orbital plane
View from above satellite
View from above satellite

Ground track
Ground track

The orbit data is extracted from the following two-line orbital elements,

1 25286U 98021B   18174.14232019  .00000080  00000-0  21223-4 0  9998
2 25286  86.3997  69.2962 0002058  81.9350  30.1998 14.34728770 58233
Epoch (UTC): 23 June 2018 03:24:56
Eccentricity: 0.0002058
inclination: 86.3997°
perigee height: 774 km
apogee height: 777 km
right ascension of ascending node: 69.2962°
argument of perigee: 81.9350°
revolutions per day: 14.34728770
mean anomaly at epoch: 30.1998°
orbit number at epoch: 5823

The dashed part of the orbit path shows where the satellite is in the earth's shadow,  

DLR